User: anonymous   Login
Location: Unspecified
(0.0000°N, 0.0000°E)
Time: 12:44:51
(UTC+00:00)
Language:

JUGNU - Orbit

View from above orbital plane
View from above orbital plane
View from above satellite
View from above satellite

Ground track
Ground track

The orbit data is extracted from the following two-line orbital elements,

1 37839U 11058B   19196.92321275 +.00000295 +00000-0 +15215-4 0  9996
2 37839 019.9601 169.6402 0018713 267.1730 120.8427 14.12654035401002
Epoch (UTC): 15 July 2019 22:09:25
Eccentricity: 0.0018713
inclination: 19.9601°
perigee height: 837 km
apogee height: 864 km
right ascension of ascending node: 169.6402°
argument of perigee: 267.1730°
revolutions per day: 14.12654035
mean anomaly at epoch: 120.8427°
orbit number at epoch: 40100

The dashed part of the orbit path shows where the satellite is in the earth's shadow,  

DLR